Powrót do katalogu

STARLINK-31527

AktywnyŁącznośćVLEO
NORAD 59018·PAYLOAD·🇺🇸 United States

Wystrzelony Feb 23, 2024 z Vandenberg Space Force Base

Loading…

Następne Przeloty (najbliższe 24 godziny)

TLE

ŚwieżeSource: CelesTrak SupGP

Epoka: Sep 14, 2026, 21:17 UTC

1 59018C 24036W   26257.88729167  .00045048  00000+0  13312-2 0  2577
2 59018  53.1559 277.6161 0001293  87.5619 301.3274 15.34361473    12

Śledź STARLINK-31527 w czasie rzeczywistym z AllMySat

Download on the App Store